Time,TemperatureF,DewpointF,PressureIn,WindDirection,WindDirectionDegrees,WindSpeedMPH,WindSpeedGustMPH,Humidity,HourlyPrecipIn,Conditions,Clouds,dailyrainin,SoftwareType,DateUTC
2013-05-17 00:01:00,61.9,40.8,29.83,NNW,338,0.7,4.0,46,0.00,,,0.00,WUHU216HW,2013-05-17 04:01:00,
2013-05-17 00:06:00,61.6,40.5,29.84,NNE,23,2.7,4.0,46,0.00,,,0.00,WUHU216HW,2013-05-17 04:06:00,
2013-05-17 00:11:00,61.2,40.7,29.84,North,0,1.1,6.9,47,0.00,,,0.00,WUHU216HW,2013-05-17 04:11:00,
2013-05-17 00:16:00,60.8,41.0,29.84,NW,315,0.7,6.9,48,0.00,,,0.00,WUHU216HW,2013-05-17 04:16:00,
2013-05-17 00:21:00,60.7,40.8,29.84,North,0,2.5,5.8,48,0.00,,,0.00,WUHU216HW,2013-05-17 04:21:00,
2013-05-17 00:26:00,60.5,41.2,29.84,NW,315,3.6,4.3,49,0.00,,,0.00,WUHU216HW,2013-05-17 04:26:00,
2013-05-17 00:31:00,60.1,40.9,29.84,NE,45,0.7,4.9,49,0.00,,,0.00,WUHU216HW,2013-05-17 04:31:00,
2013-05-17 00:36:00,59.9,41.3,29.85,North,0,4.0,4.9,50,0.00,,,0.00,WUHU216HW,2013-05-17 04:36:00,
2013-05-17 00:41:00,59.8,41.1,29.85,North,0,1.1,4.7,50,0.00,,,0.00,WUHU216HW,2013-05-17 04:41:00,
2013-05-17 00:46:00,59.4,40.2,29.85,North,0,0.7,4.7,49,0.00,,,0.00,WUHU216HW,2013-05-17 04:46:00,
2013-05-17 00:51:00,59.2,41.1,29.85,NNE,23,0.4,3.4,51,0.00,,,0.00,WUHU216HW,2013-05-17 04:51:00,
2013-05-17 00:56:00,59.0,41.0,29.85,North,0,3.4,4.9,51,0.00,,,0.00,WUHU216HW,2013-05-17 04:56:00,
2013-05-17 01:01:00,58.7,40.7,29.85,NNW,338,2.9,4.9,51,0.00,,,0.00,WUHU216HW,2013-05-17 05:01:00,
2013-05-17 01:06:00,58.7,41.1,29.85,NNW,338,3.1,5.1,52,0.00,,,0.00,WUHU216HW,2013-05-17 05:06:00,
2013-05-17 01:11:00,58.5,41.0,29.85,North,0,1.6,5.1,52,0.00,,,0.00,WUHU216HW,2013-05-17 05:11:00,
2013-05-17 01:16:00,58.3,40.8,29.85,NNW,338,1.8,4.0,52,0.00,,,0.00,WUHU216HW,2013-05-17 05:16:00,
2013-05-17 01:21:00,58.3,40.8,29.85,NW,315,1.1,8.3,52,0.00,,,0.00,WUHU216HW,2013-05-17 05:21:00,
2013-05-17 01:26:00,58.1,41.1,29.85,NW,315,5.8,8.3,53,0.00,,,0.00,WUHU216HW,2013-05-17 05:26:00,
2013-05-17 01:31:00,58.1,40.6,29.85,WNW,293,1.3,8.3,52,0.00,,,0.00,WUHU216HW,2013-05-17 05:31:00,
2013-05-17 01:36:00,58.0,40.5,29.86,NNW,338,3.1,6.0,52,0.00,,,0.00,WUHU216HW,2013-05-17 05:36:00,
2013-05-17 01:41:00,58.0,41.0,29.85,West,270,2.0,5.8,53,0.00,,,0.00,WUHU216HW,2013-05-17 05:41:00,
2013-05-17 01:46:00,57.8,40.8,29.85,North,0,3.6,5.4,53,0.00,,,0.00,WUHU216HW,2013-05-17 05:46:00,
2013-05-17 01:51:00,57.6,40.6,29.85,North,0,1.3,4.7,53,0.00,,,0.00,WUHU216HW,2013-05-17 05:51:00,
2013-05-17 01:56:00,57.6,41.0,29.85,NW,315,2.0,4.7,54,0.00,,,0.00,WUHU216HW,2013-05-17 05:56:00,
2013-05-17 02:01:00,57.4,41.0,29.85,WNW,293,0.7,4.7,54,0.00,,,0.00,WUHU216HW,2013-05-17 06:01:00,
2013-05-17 02:06:00,57.2,40.8,29.85,WNW,293,2.5,5.1,54,0.00,,,0.00,WUHU216HW,2013-05-17 06:06:00,
2013-05-17 02:11:00,57.2,40.8,29.85,NNW,338,0.4,8.5,54,0.00,,,0.00,WUHU216HW,2013-05-17 06:11:00,
2013-05-17 02:16:00,57.1,40.6,29.85,WNW,293,0.9,8.5,54,0.00,,,0.00,WUHU216HW,2013-05-17 06:16:00,
2013-05-17 02:21:00,56.9,40.4,29.85,NNW,338,0.9,3.4,54,0.00,,,0.00,WUHU216HW,2013-05-17 06:21:00,
2013-05-17 02:26:00,56.9,40.4,29.85,NW,315,3.4,4.0,54,0.00,,,0.00,WUHU216HW,2013-05-17 06:26:00,
2013-05-17 02:31:00,56.7,40.2,29.86,NNE,23,1.8,6.0,54,0.00,,,0.00,WUHU216HW,2013-05-17 06:31:00,
2013-05-17 02:36:00,56.5,40.5,29.86,NNW,338,4.0,6.0,55,0.00,,,0.00,WUHU216HW,2013-05-17 06:36:00,
2013-05-17 02:41:00,56.5,40.5,29.86,NNW,338,0.7,5.4,55,0.00,,,0.00,WUHU216HW,2013-05-17 06:41:00,
2013-05-17 02:46:00,56.3,40.3,29.86,NNW,338,2.7,5.4,55,0.00,,,0.00,WUHU216HW,2013-05-17 06:46:00,
2013-05-17 02:51:00,56.3,40.3,29.86,NNE,23,1.1,5.4,55,0.00,,,0.00,WUHU216HW,2013-05-17 06:51:00,
2013-05-17 02:56:00,56.2,40.6,29.87,NNW,338,1.6,3.1,56,0.00,,,0.00,WUHU216HW,2013-05-17 06:56:00,
2013-05-17 03:01:00,56.2,40.6,29.87,NW,315,1.1,2.5,56,0.00,,,0.00,WUHU216HW,2013-05-17 07:01:00,
2013-05-17 03:06:00,56.0,40.4,29.87,NNW,338,2.5,2.5,56,0.00,,,0.00,WUHU216HW,2013-05-17 07:06:00,
2013-05-17 03:11:00,55.8,40.2,29.87,WNW,293,0.4,3.4,56,0.00,,,0.00,WUHU216HW,2013-05-17 07:11:00,
2013-05-17 03:16:00,55.6,39.6,29.87,NW,315,0.4,3.4,55,0.00,,,0.00,WUHU216HW,2013-05-17 07:16:00,
2013-05-17 03:21:00,55.4,39.9,29.87,WNW,293,1.3,3.4,56,0.00,,,0.00,WUHU216HW,2013-05-17 07:21:00,
2013-05-17 03:26:00,55.3,39.7,29.87,NW,315,0.9,3.4,56,0.00,,,0.00,WUHU216HW,2013-05-17 07:26:00,
2013-05-17 03:31:00,55.1,41.4,29.87,WSW,248,3.4,3.4,60,0.00,,,0.00,WUHU216HW,2013-05-17 07:31:00,
2013-05-17 03:36:00,54.9,40.8,29.87,WNW,293,1.8,4.0,59,0.00,,,0.00,WUHU216HW,2013-05-17 07:36:00,
2013-05-17 03:41:00,54.7,41.1,29.87,WNW,293,2.7,4.0,60,0.00,,,0.00,WUHU216HW,2013-05-17 07:41:00,
2013-05-17 03:46:00,54.7,40.7,29.87,West,270,1.1,4.3,59,0.00,,,0.00,WUHU216HW,2013-05-17 07:46:00,
2013-05-17 03:51:00,54.5,40.5,29.88,WSW,248,1.3,4.3,59,0.00,,,0.00,WUHU216HW,2013-05-17 07:51:00,
2013-05-17 03:56:00,54.4,41.2,29.88,NW,315,0.4,4.3,61,0.00,,,0.00,WUHU216HW,2013-05-17 07:56:00,
2013-05-17 04:01:00,54.4,40.8,29.88,NNW,338,0.4,3.4,60,0.00,,,0.00,WUHU216HW,2013-05-17 08:01:00,
2013-05-17 04:06:00,54.2,40.1,29.89,NNW,338,0.4,3.4,59,0.00,,,0.00,WUHU216HW,2013-05-17 08:06:00,
2013-05-17 04:11:00,53.8,40.3,29.89,West,270,2.9,2.9,60,0.00,,,0.00,WUHU216HW,2013-05-17 08:11:00,
2013-05-17 04:16:00,53.6,40.1,29.89,NW,315,1.8,3.6,60,0.00,,,0.00,WUHU216HW,2013-05-17 08:16:00,
2013-05-17 04:21:00,53.5,40.3,29.89,NNW,338,1.6,3.6,61,0.00,,,0.00,WUHU216HW,2013-05-17 08:21:00,
2013-05-17 04:26:00,53.5,40.3,29.90,North,0,0.4,2.5,61,0.00,,,0.00,WUHU216HW,2013-05-17 08:26:00,
2013-05-17 04:31:00,53.3,40.1,29.90,NNE,23,1.1,2.5,61,0.00,,,0.00,WUHU216HW,2013-05-17 08:31:00,
2013-05-17 04:36:00,53.1,40.8,29.90,NNE,23,0.7,3.4,63,0.00,,,0.00,WUHU216HW,2013-05-17 08:36:00,
2013-05-17 04:41:00,53.1,40.4,29.90,NNW,338,1.8,7.4,62,0.00,,,0.00,WUHU216HW,2013-05-17 08:41:00,
2013-05-17 04:46:00,52.9,40.2,29.91,NNW,338,2.2,7.6,62,0.00,,,0.00,WUHU216HW,2013-05-17 08:46:00,
2013-05-17 04:51:00,52.9,40.2,29.91,NNW,338,3.4,7.6,62,0.00,,,0.00,WUHU216HW,2013-05-17 08:51:00,
2013-05-17 04:56:00,52.9,40.2,29.91,NNW,338,1.8,6.9,62,0.00,,,0.00,WUHU216HW,2013-05-17 08:56:00,
2013-05-17 05:01:00,52.9,39.8,29.91,NNW,338,2.5,6.9,61,0.00,,,0.00,WUHU216HW,2013-05-17 09:01:00,
2013-05-17 05:06:00,52.9,39.8,29.91,North,0,1.3,4.5,61,0.00,,,0.00,WUHU216HW,2013-05-17 09:06:00,
2013-05-17 05:11:00,52.9,39.8,29.92,NW,315,2.7,7.2,61,0.00,,,0.00,WUHU216HW,2013-05-17 09:11:00,
2013-05-17 05:16:00,52.7,39.6,29.92,North,0,2.5,7.2,61,0.00,,,0.00,WUHU216HW,2013-05-17 09:16:00,
2013-05-17 05:21:00,52.6,39.5,29.92,WSW,248,1.1,4.9,61,0.00,,,0.00,WUHU216HW,2013-05-17 09:21:00,
2013-05-17 05:26:00,52.6,39.5,29.92,NNE,23,0.4,3.1,61,0.00,,,0.00,WUHU216HW,2013-05-17 09:26:00,
2013-05-17 05:31:00,52.4,39.7,29.92,NNW,338,1.1,3.6,62,0.00,,,0.00,WUHU216HW,2013-05-17 09:31:00,
2013-05-17 05:36:00,52.4,39.7,29.92,NNW,338,1.8,5.6,62,0.00,,,0.00,WUHU216HW,2013-05-17 09:36:00,
2013-05-17 05:41:00,52.2,40.0,29.93,NW,315,3.4,5.6,63,0.00,,,0.00,WUHU216HW,2013-05-17 09:41:00,
2013-05-17 05:46:00,52.2,39.5,29.93,NW,315,2.9,5.8,62,0.00,,,0.00,WUHU216HW,2013-05-17 09:46:00,
2013-05-17 05:51:00,52.2,40.0,29.93,WSW,248,6.3,6.3,63,0.00,,,0.00,WUHU216HW,2013-05-17 09:51:00,
2013-05-17 05:56:00,52.2,40.0,29.94,NNW,338,1.8,6.7,63,0.00,,,0.00,WUHU216HW,2013-05-17 09:56:00,
2013-05-17 06:01:00,52.2,40.0,29.94,WNW,293,2.5,6.7,63,0.00,,,0.00,WUHU216HW,2013-05-17 10:01:00,
2013-05-17 06:06:00,52.2,40.3,29.94,WNW,293,2.2,3.8,64,0.00,,,0.00,WUHU216HW,2013-05-17 10:06:00,
2013-05-17 06:11:00,52.2,40.3,29.95,NNE,23,0.9,3.8,64,0.00,,,0.00,WUHU216HW,2013-05-17 10:11:00,
2013-05-17 06:16:00,52.2,40.3,29.94,WNW,293,2.7,4.0,64,0.00,,,0.00,WUHU216HW,2013-05-17 10:16:00,
2013-05-17 06:21:00,52.0,40.1,29.95,NW,315,2.5,4.0,64,0.00,,,0.00,WUHU216HW,2013-05-17 10:21:00,
2013-05-17 06:26:00,52.0,39.8,29.95,NW,315,1.8,5.8,63,0.00,,,0.00,WUHU216HW,2013-05-17 10:26:00,
2013-05-17 06:31:00,52.0,39.8,29.95,West,270,6.3,6.3,63,0.00,,,0.00,WUHU216HW,2013-05-17 10:31:00,
2013-05-17 06:36:00,52.0,39.3,29.95,WNW,293,4.5,7.2,62,0.00,,,0.00,WUHU216HW,2013-05-17 10:36:00,
2013-05-17 06:41:00,52.2,39.5,29.96,NW,315,1.8,8.1,62,0.00,,,0.00,WUHU216HW,2013-05-17 10:41:00,
2013-05-17 06:46:00,52.2,39.5,29.96,NW,315,1.8,10.1,62,0.00,,,0.00,WUHU216HW,2013-05-17 10:46:00,
2013-05-17 06:51:00,52.2,39.2,29.97,NW,315,3.1,10.1,61,0.00,,,0.00,WUHU216HW,2013-05-17 10:51:00,
2013-05-17 06:56:00,52.2,39.2,29.97,WNW,293,2.0,7.6,61,0.00,,,0.00,WUHU216HW,2013-05-17 10:56:00,
2013-05-17 07:01:00,52.4,39.3,29.97,West,270,3.4,9.6,61,0.00,,,0.00,WUHU216HW,2013-05-17 11:01:00,
2013-05-17 07:06:00,52.4,38.9,29.98,NNW,338,6.7,9.6,60,0.00,,,0.00,WUHU216HW,2013-05-17 11:06:00,
2013-05-17 07:11:00,52.4,38.9,29.98,North,0,6.5,8.1,60,0.00,,,0.00,WUHU216HW,2013-05-17 11:11:00,
2013-05-17 07:16:00,52.6,39.1,29.98,NNE,23,2.7,8.1,60,0.00,,,0.00,WUHU216HW,2013-05-17 11:16:00,
2013-05-17 07:21:00,52.6,39.1,29.98,North,0,5.4,8.5,60,0.00,,,0.00,WUHU216HW,2013-05-17 11:21:00,
2013-05-17 07:26:00,52.7,39.2,29.99,NNW,338,3.1,8.9,60,0.00,,,0.00,WUHU216HW,2013-05-17 11:26:00,
2013-05-17 07:31:00,52.9,39.0,29.99,North,0,4.0,8.9,59,0.00,,,0.00,WUHU216HW,2013-05-17 11:31:00,
2013-05-17 07:36:00,53.1,39.2,29.99,North,0,1.1,7.2,59,0.00,,,0.00,WUHU216HW,2013-05-17 11:36:00,
2013-05-17 07:41:00,53.3,38.9,29.99,NNE,23,2.0,6.3,58,0.00,,,0.00,WUHU216HW,2013-05-17 11:41:00,
2013-05-17 07:46:00,53.5,39.1,29.99,NNW,338,1.3,5.4,58,0.00,,,0.00,WUHU216HW,2013-05-17 11:46:00,
2013-05-17 07:51:00,53.6,39.3,30.00,NNW,338,1.1,7.4,58,0.00,,,0.00,WUHU216HW,2013-05-17 11:51:00,
2013-05-17 07:56:00,53.8,38.9,30.00,NNE,23,3.6,7.4,57,0.00,,,0.00,WUHU216HW,2013-05-17 11:56:00,
2013-05-17 08:01:00,54.2,39.3,30.00,NNE,23,5.4,10.5,57,0.00,,,0.00,WUHU216HW,2013-05-17 12:01:00,
2013-05-17 08:06:00,54.4,38.9,30.00,NNW,338,3.6,10.5,56,0.00,,,0.00,WUHU216HW,2013-05-17 12:06:00,
2013-05-17 08:11:00,54.4,38.9,30.01,NNW,338,7.6,10.5,56,0.00,,,0.00,WUHU216HW,2013-05-17 12:11:00,
2013-05-17 08:16:00,54.5,39.1,30.00,NNW,338,3.6,10.5,56,0.00,,,0.00,WUHU216HW,2013-05-17 12:16:00,
2013-05-17 08:21:00,54.7,38.8,30.00,North,0,7.6,10.7,55,0.00,,,0.00,WUHU216HW,2013-05-17 12:21:00,
2013-05-17 08:26:00,54.9,39.4,30.00,WSW,248,2.0,11.4,56,0.00,,,0.00,WUHU216HW,2013-05-17 12:26:00,
2013-05-17 08:31:00,55.3,39.2,30.00,NNW,338,4.9,11.4,55,0.00,,,0.00,WUHU216HW,2013-05-17 12:31:00,
2013-05-17 08:36:00,55.4,39.0,30.00,North,0,6.3,8.3,54,0.00,,,0.00,WUHU216HW,2013-05-17 12:36:00,
2013-05-17 08:41:00,55.4,39.4,30.00,NNW,338,2.0,11.4,55,0.00,,,0.00,WUHU216HW,2013-05-17 12:41:00,
2013-05-17 08:46:00,56.0,40.0,30.00,WNW,293,4.7,11.4,55,0.00,,,0.00,WUHU216HW,2013-05-17 12:46:00,
2013-05-17 08:51:00,56.5,40.1,30.01,NNW,338,7.6,13.2,54,0.00,,,0.00,WUHU216HW,2013-05-17 12:51:00,
2013-05-17 08:56:00,57.2,40.8,30.00,WNW,293,9.4,13.2,54,0.00,,,0.00,WUHU216HW,2013-05-17 12:56:00,
2013-05-17 09:01:00,58.0,41.0,30.01,NW,315,4.0,11.2,53,0.00,,,0.00,WUHU216HW,2013-05-17 13:01:00,
2013-05-17 09:06:00,59.0,41.0,30.01,NNW,338,6.7,12.5,51,0.00,,,0.00,WUHU216HW,2013-05-17 13:06:00,
2013-05-17 09:11:00,60.3,41.0,30.01,NNW,338,5.4,12.5,49,0.00,,,0.00,WUHU216HW,2013-05-17 13:11:00,
2013-05-17 09:16:00,60.8,41.0,30.01,North,0,1.8,8.5,48,0.00,,,0.00,WUHU216HW,2013-05-17 13:16:00,
2013-05-17 09:21:00,61.0,41.1,30.01,North,0,4.3,8.5,48,0.00,,,0.00,WUHU216HW,2013-05-17 13:21:00,
2013-05-17 09:26:00,61.7,41.2,30.00,NW,315,4.5,8.5,47,0.00,,,0.00,WUHU216HW,2013-05-17 13:26:00,
2013-05-17 09:31:00,61.7,41.2,30.00,North,0,2.7,12.5,47,0.00,,,0.00,WUHU216HW,2013-05-17 13:31:00,
2013-05-17 09:36:00,62.5,41.3,30.01,NW,315,5.4,12.5,46,0.00,,,0.00,WUHU216HW,2013-05-17 13:36:00,
2013-05-17 09:41:00,63.2,42.0,30.01,NW,315,2.7,7.8,46,0.00,,,0.00,WUHU216HW,2013-05-17 13:41:00,
2013-05-17 09:46:00,63.5,41.7,30.00,NNE,23,9.4,9.4,45,0.00,,,0.00,WUHU216HW,2013-05-17 13:46:00,
2013-05-17 09:51:00,63.7,41.2,30.00,NNW,338,8.3,10.3,44,0.00,,,0.00,WUHU216HW,2013-05-17 13:51:00,
2013-05-17 09:56:00,64.1,41.6,30.01,NNW,338,4.5,10.3,44,0.00,,,0.00,WUHU216HW,2013-05-17 13:56:00,
2013-05-17 10:01:00,64.1,40.4,30.01,North,0,4.5,10.1,42,0.00,,,0.00,WUHU216HW,2013-05-17 14:01:00,
2013-05-17 10:06:00,63.7,40.7,30.01,NE,45,3.6,11.0,43,0.00,,,0.00,WUHU216HW,2013-05-17 14:06:00,
2013-05-17 10:11:00,63.2,40.8,30.01,NNW,338,7.2,15.0,44,0.00,,,0.00,WUHU216HW,2013-05-17 14:11:00,
2013-05-17 10:16:00,63.0,41.2,30.01,NNW,338,2.2,15.0,45,0.00,,,0.00,WUHU216HW,2013-05-17 14:16:00,
2013-05-17 10:22:00,63.0,41.2,30.02,North,0,4.3,10.7,45,0.00,,,0.00,WUHU216HW,2013-05-17 14:22:00,
2013-05-17 10:27:00,63.7,41.9,30.01,NE,45,3.8,8.5,45,0.00,,,0.00,WUHU216HW,2013-05-17 14:27:00,
2013-05-17 10:32:00,64.8,41.7,30.02,West,270,7.2,8.5,43,0.00,,,0.00,WUHU216HW,2013-05-17 14:32:00,
2013-05-17 10:36:00,65.5,41.8,30.02,NNW,338,4.9,16.3,42,0.00,,,0.00,WUHU216HW,2013-05-17 14:36:00,
2013-05-17 10:41:00,66.2,43.0,30.02,NNE,23,6.5,16.3,43,0.00,,,0.00,WUHU216HW,2013-05-17 14:41:00,
2013-05-17 10:47:00,66.6,42.8,30.02,North,0,2.9,10.5,42,0.00,,,0.00,WUHU216HW,2013-05-17 14:47:00,
2013-05-17 10:52:00,67.3,42.8,30.03,West,270,2.9,10.5,41,0.00,,,0.00,WUHU216HW,2013-05-17 14:52:00,
2013-05-17 10:57:00,67.5,42.4,30.03,WNW,293,9.2,11.0,40,0.00,,,0.00,WUHU216HW,2013-05-17 14:57:00,
2013-05-17 11:02:00,68.0,42.1,30.03,NNW,338,3.8,11.0,39,0.00,,,0.00,WUHU216HW,2013-05-17 15:02:00,
2013-05-17 11:07:00,68.0,43.5,30.03,WNW,293,1.6,8.3,41,0.00,,,0.00,WUHU216HW,2013-05-17 15:07:00,
2013-05-17 11:12:00,68.0,42.8,30.04,NNW,338,4.5,8.3,40,0.00,,,0.00,WUHU216HW,2013-05-17 15:12:00,
2013-05-17 11:17:00,66.4,41.4,30.04,NE,45,8.7,11.6,40,0.00,,,0.00,WUHU216HW,2013-05-17 15:17:00,
2013-05-17 11:22:00,65.0,40.7,30.04,NW,315,4.7,15.0,41,0.00,,,0.00,WUHU216HW,2013-05-17 15:22:00,
2013-05-17 11:27:00,65.3,41.6,30.04,NNW,338,3.4,15.0,42,0.00,,,0.00,WUHU216HW,2013-05-17 15:27:00,
2013-05-17 11:32:00,65.9,41.5,30.04,NNE,23,2.5,8.5,41,0.00,,,0.00,WUHU216HW,2013-05-17 15:32:00,
2013-05-17 11:37:00,66.6,41.6,30.05,NW,315,7.8,8.7,40,0.00,,,0.00,WUHU216HW,2013-05-17 15:37:00,
2013-05-17 11:42:00,66.4,41.4,30.05,NNW,338,2.0,9.6,40,0.00,,,0.00,WUHU216HW,2013-05-17 15:42:00,
2013-05-17 11:47:00,65.2,40.9,30.05,North,0,3.6,9.6,41,0.00,,,0.00,WUHU216HW,2013-05-17 15:47:00,
2013-05-17 11:52:00,65.0,40.7,30.05,NE,45,5.8,8.9,41,0.00,,,0.00,WUHU216HW,2013-05-17 15:52:00,
2013-05-17 11:57:00,65.3,41.0,30.05,NNW,338,5.4,9.6,41,0.00,,,0.00,WUHU216HW,2013-05-17 15:57:00,
2013-05-17 12:02:00,65.5,40.6,30.05,NNW,338,3.8,9.6,40,0.00,,,0.00,WUHU216HW,2013-05-17 16:02:00,
2013-05-17 12:07:00,65.3,41.0,30.05,WNW,293,4.5,10.1,41,0.00,,,0.00,WUHU216HW,2013-05-17 16:07:00,
2013-05-17 12:12:00,65.9,40.9,30.05,North,0,2.5,11.6,40,0.00,,,0.00,WUHU216HW,2013-05-17 16:12:00,
2013-05-17 12:17:00,65.2,40.2,30.05,NNW,338,3.4,12.1,40,0.00,,,0.00,WUHU216HW,2013-05-17 16:17:00,
2013-05-17 12:22:00,64.8,40.5,30.05,NNE,23,5.4,12.1,41,0.00,,,0.00,WUHU216HW,2013-05-17 16:22:00,
2013-05-17 12:27:00,64.4,40.1,30.05,NNW,338,4.5,9.2,41,0.00,,,0.00,WUHU216HW,2013-05-17 16:27:00,
2013-05-17 12:32:00,65.0,40.7,30.05,WNW,293,9.8,10.7,41,0.00,,,0.00,WUHU216HW,2013-05-17 16:32:00,
2013-05-17 12:37:00,66.6,41.6,30.05,NW,315,6.3,10.7,40,0.00,,,0.00,WUHU216HW,2013-05-17 16:37:00,
2013-05-17 12:42:00,66.6,40.9,30.05,NNE,23,6.7,11.6,39,0.00,,,0.00,WUHU216HW,2013-05-17 16:42:00,
2013-05-17 12:47:00,66.6,40.9,30.05,North,0,4.9,11.6,39,0.00,,,0.00,WUHU216HW,2013-05-17 16:47:00,
2013-05-17 12:52:00,66.2,40.5,30.05,NW,315,4.9,10.3,39,0.00,,,0.00,WUHU216HW,2013-05-17 16:52:00,
2013-05-17 12:57:00,66.1,41.0,30.05,NW,315,3.6,10.3,40,0.00,,,0.00,WUHU216HW,2013-05-17 16:57:00,
2013-05-17 13:02:00,66.4,40.7,30.05,WNW,293,6.5,10.3,39,0.00,,,0.00,WUHU216HW,2013-05-17 17:02:00,
2013-05-17 13:07:00,67.1,41.3,30.05,NNE,23,2.0,8.5,39,0.00,,,0.00,WUHU216HW,2013-05-17 17:07:00,
2013-05-17 13:12:00,67.5,41.6,30.05,NW,315,4.5,14.5,39,0.00,,,0.00,WUHU216HW,2013-05-17 17:12:00,
2013-05-17 13:17:00,67.5,41.6,30.05,North,0,2.0,14.5,39,0.00,,,0.00,WUHU216HW,2013-05-17 17:17:00,
2013-05-17 13:22:00,67.3,41.5,30.05,North,0,3.6,8.5,39,0.00,,,0.00,WUHU216HW,2013-05-17 17:22:00,
2013-05-17 13:27:00,67.1,41.3,30.05,NE,45,3.1,8.5,39,0.00,,,0.00,WUHU216HW,2013-05-17 17:27:00,
2013-05-17 13:32:00,68.0,41.4,30.05,NNW,338,5.1,10.3,38,0.00,,,0.00,WUHU216HW,2013-05-17 17:32:00,
2013-05-17 13:37:00,68.8,41.3,30.05,WNW,293,5.8,10.3,37,0.00,,,0.00,WUHU216HW,2013-05-17 17:37:00,
2013-05-17 13:42:00,69.1,41.6,30.05,SW,225,4.7,8.9,37,0.00,,,0.00,WUHU216HW,2013-05-17 17:42:00,
2013-05-17 13:47:00,69.1,41.6,30.05,North,0,3.6,9.8,37,0.00,,,0.00,WUHU216HW,2013-05-17 17:47:00,
2013-05-17 13:52:00,68.8,41.3,30.05,NNW,338,3.4,9.8,37,0.00,,,0.00,WUHU216HW,2013-05-17 17:52:00,
2013-05-17 13:57:00,68.4,40.2,30.05,NNW,338,3.4,15.7,36,0.00,,,0.00,WUHU216HW,2013-05-17 17:57:00,
2013-05-17 14:02:00,68.6,40.4,30.05,NW,315,8.5,15.7,36,0.00,,,0.00,WUHU216HW,2013-05-17 18:02:00,
2013-05-17 14:07:00,68.6,39.6,30.05,NNE,23,10.5,12.8,35,0.00,,,0.00,WUHU216HW,2013-05-17 18:07:00,
2013-05-17 14:12:00,68.2,40.8,30.05,North,0,2.2,12.8,37,0.00,,,0.00,WUHU216HW,2013-05-17 18:12:00,
2013-05-17 14:17:00,68.4,41.0,30.05,SW,225,6.0,10.5,37,0.00,,,0.00,WUHU216HW,2013-05-17 18:17:00,
2013-05-17 14:22:00,68.4,41.0,30.05,NE,45,10.5,10.5,37,0.00,,,0.00,WUHU216HW,2013-05-17 18:22:00,
2013-05-17 14:27:00,68.4,40.2,30.06,North,0,8.5,16.6,36,0.00,,,0.00,WUHU216HW,2013-05-17 18:27:00,
2013-05-17 14:32:00,68.6,40.4,30.05,NNE,23,3.8,16.6,36,0.00,,,0.00,WUHU216HW,2013-05-17 18:32:00,
2013-05-17 14:37:00,68.6,39.6,30.05,NW,315,5.4,12.3,35,0.00,,,0.00,WUHU216HW,2013-05-17 18:37:00,
2013-05-17 14:42:00,68.8,40.5,30.06,NNE,23,2.2,12.3,36,0.00,,,0.00,WUHU216HW,2013-05-17 18:42:00,
2013-05-17 14:47:00,69.1,39.4,30.06,NNE,23,3.1,11.2,34,0.00,,,0.00,WUHU216HW,2013-05-17 18:47:00,
2013-05-17 14:52:00,69.1,38.6,30.06,North,0,10.5,12.1,33,0.00,,,0.00,WUHU216HW,2013-05-17 18:52:00,
2013-05-17 14:57:00,68.8,38.4,30.06,NW,315,4.0,12.1,33,0.00,,,0.00,WUHU216HW,2013-05-17 18:57:00,
2013-05-17 15:02:00,68.9,39.3,30.05,NNW,338,2.7,9.8,34,0.00,,,0.00,WUHU216HW,2013-05-17 19:02:00,
2013-05-17 15:07:00,69.1,39.4,30.06,NE,45,7.4,12.3,34,0.00,,,0.00,WUHU216HW,2013-05-17 19:07:00,
2013-05-17 15:12:00,68.8,39.1,30.06,East,90,2.9,12.8,34,0.00,,,0.00,WUHU216HW,2013-05-17 19:12:00,
2013-05-17 15:17:00,68.9,39.3,30.06,WSW,248,4.0,12.8,34,0.00,,,0.00,WUHU216HW,2013-05-17 19:17:00,
2013-05-17 15:22:00,69.5,39.0,30.06,North,0,11.6,11.6,33,0.00,,,0.00,WUHU216HW,2013-05-17 19:22:00,
2013-05-17 15:27:00,69.1,38.6,30.06,North,0,2.5,12.5,33,0.00,,,0.00,WUHU216HW,2013-05-17 19:27:00,
2013-05-17 15:32:00,68.8,38.4,30.06,NNW,338,2.9,12.8,33,0.00,,,0.00,WUHU216HW,2013-05-17 19:32:00,
2013-05-17 15:37:00,69.1,37.9,30.06,North,0,4.9,12.8,32,0.00,,,0.00,WUHU216HW,2013-05-17 19:37:00,
2013-05-17 15:42:00,69.5,38.3,30.06,WNW,293,6.0,11.4,32,0.00,,,0.00,WUHU216HW,2013-05-17 19:42:00,
2013-05-17 15:47:00,69.5,38.3,30.06,NW,315,4.3,11.2,32,0.00,,,0.00,WUHU216HW,2013-05-17 19:47:00,
2013-05-17 15:52:00,69.8,38.5,30.06,North,0,5.1,9.6,32,0.00,,,0.00,WUHU216HW,2013-05-17 19:52:00,
2013-05-17 15:57:00,70.0,38.7,30.06,East,90,5.1,9.6,32,0.00,,,0.00,WUHU216HW,2013-05-17 19:57:00,
2013-05-17 16:02:00,70.0,38.7,30.06,NE,45,4.9,9.2,32,0.00,,,0.00,WUHU216HW,2013-05-17 20:02:00,
2013-05-17 16:07:00,69.7,38.4,30.06,North,0,2.2,9.2,32,0.00,,,0.00,WUHU216HW,2013-05-17 20:07:00,
2013-05-17 16:12:00,69.8,37.8,30.06,NNW,338,2.7,9.2,31,0.00,,,0.00,WUHU216HW,2013-05-17 20:12:00,
2013-05-17 16:17:00,70.2,38.2,30.06,NW,315,7.8,7.8,31,0.00,,,0.00,WUHU216HW,2013-05-17 20:17:00,
2013-05-17 16:22:00,70.2,38.9,30.07,NNW,338,3.4,12.5,32,0.00,,,0.00,WUHU216HW,2013-05-17 20:22:00,
2013-05-17 16:27:00,70.0,38.7,30.06,West,270,1.8,12.5,32,0.00,,,0.00,WUHU216HW,2013-05-17 20:27:00,
2013-05-17 16:32:00,69.8,38.5,30.07,NNW,338,2.5,10.5,32,0.00,,,0.00,WUHU216HW,2013-05-17 20:32:00,
2013-05-17 16:37:00,70.0,37.3,30.07,NW,315,3.6,9.8,30,0.00,,,0.00,WUHU216HW,2013-05-17 20:37:00,
2013-05-17 16:42:00,70.4,38.4,30.07,NNE,23,9.6,16.1,31,0.00,,,0.00,WUHU216HW,2013-05-17 20:42:00,
2013-05-17 16:47:00,70.2,38.2,30.07,North,0,1.8,16.1,31,0.00,,,0.00,WUHU216HW,2013-05-17 20:47:00,
2013-05-17 16:52:00,70.2,38.9,30.07,NNE,23,3.4,11.4,32,0.00,,,0.00,WUHU216HW,2013-05-17 20:52:00,
2013-05-17 16:57:00,70.4,39.1,30.07,NW,315,3.4,11.4,32,0.00,,,0.00,WUHU216HW,2013-05-17 20:57:00,
2013-05-17 17:02:00,70.6,38.4,30.08,NNW,338,2.9,8.7,31,0.00,,,0.00,WUHU216HW,2013-05-17 21:02:00,
2013-05-17 17:07:00,70.6,37.7,30.08,NNW,338,3.4,12.8,30,0.00,,,0.00,WUHU216HW,2013-05-17 21:07:00,
2013-05-17 17:12:00,70.7,36.9,30.08,North,0,4.7,12.8,29,0.00,,,0.00,WUHU216HW,2013-05-17 21:12:00,
2013-05-17 17:17:00,70.4,36.5,30.08,WNW,293,8.3,8.3,29,0.00,,,0.00,WUHU216HW,2013-05-17 21:17:00,
2013-05-17 17:22:00,70.4,36.5,30.09,North,0,4.7,8.3,29,0.00,,,0.00,WUHU216HW,2013-05-17 21:22:00,
2013-05-17 17:27:00,70.2,37.5,30.09,NNE,23,7.6,12.1,30,0.00,,,0.00,WUHU216HW,2013-05-17 21:27:00,
2013-05-17 17:32:00,69.8,37.1,30.09,North,0,0.9,12.1,30,0.00,,,0.00,WUHU216HW,2013-05-17 21:32:00,
2013-05-17 17:37:00,69.8,37.8,30.09,North,0,1.3,9.2,31,0.00,,,0.00,WUHU216HW,2013-05-17 21:37:00,
2013-05-17 17:42:00,69.5,37.5,30.10,NNW,338,2.5,6.3,31,0.00,,,0.00,WUHU216HW,2013-05-17 21:42:00,
2013-05-17 17:47:00,69.5,37.5,30.10,NE,45,3.4,6.5,31,0.00,,,0.00,WUHU216HW,2013-05-17 21:47:00,
2013-05-17 17:52:00,68.9,37.7,30.10,NNE,23,2.5,6.5,32,0.00,,,0.00,WUHU216HW,2013-05-17 21:52:00,
2013-05-17 17:57:00,68.9,37.7,30.10,NNW,338,4.0,6.0,32,0.00,,,0.00,WUHU216HW,2013-05-17 21:57:00,
2013-05-17 18:02:00,68.8,37.6,30.10,NNE,23,3.8,7.4,32,0.00,,,0.00,WUHU216HW,2013-05-17 22:02:00,
2013-05-17 18:07:00,68.8,37.6,30.10,NNW,338,0.9,7.4,32,0.00,,,0.00,WUHU216HW,2013-05-17 22:07:00,
2013-05-17 18:12:00,69.1,37.9,30.10,NNE,23,1.8,4.0,32,0.00,,,0.00,WUHU216HW,2013-05-17 22:12:00,
2013-05-17 18:17:00,69.1,37.9,30.10,ENE,68,3.4,3.6,32,0.00,,,0.00,WUHU216HW,2013-05-17 22:17:00,
2013-05-17 18:22:00,69.1,37.2,30.11,North,0,1.8,6.9,31,0.00,,,0.00,WUHU216HW,2013-05-17 22:22:00,
2013-05-17 18:27:00,68.8,36.8,30.11,NE,45,9.4,9.6,31,0.00,,,0.00,WUHU216HW,2013-05-17 22:27:00,
2013-05-17 18:32:00,68.4,36.6,30.11,NNE,23,4.0,9.6,31,0.00,,,0.00,WUHU216HW,2013-05-17 22:32:00,
2013-05-17 18:37:00,68.4,35.8,30.11,North,0,1.3,9.4,30,0.00,,,0.00,WUHU216HW,2013-05-17 22:37:00,
2013-05-17 18:42:00,68.0,36.2,30.11,NE,45,5.4,9.2,31,0.00,,,0.00,WUHU216HW,2013-05-17 22:42:00,
2013-05-17 18:47:00,68.0,36.2,30.11,North,0,1.1,7.4,31,0.00,,,0.00,WUHU216HW,2013-05-17 22:47:00,
2013-05-17 18:52:00,68.0,36.9,30.12,NE,45,2.7,7.4,32,0.00,,,0.00,WUHU216HW,2013-05-17 22:52:00,
2013-05-17 18:57:00,67.9,36.8,30.12,North,0,2.9,5.6,32,0.00,,,0.00,WUHU216HW,2013-05-17 22:57:00,
2013-05-17 19:02:00,67.7,37.4,30.12,NNE,23,1.6,4.9,33,0.00,,,0.00,WUHU216HW,2013-05-17 23:02:00,
2013-05-17 19:07:00,67.3,37.1,30.12,North,0,1.8,6.7,33,0.00,,,0.00,WUHU216HW,2013-05-17 23:07:00,
2013-05-17 19:12:00,67.1,36.2,30.13,North,0,2.5,6.7,32,0.00,,,0.00,WUHU216HW,2013-05-17 23:12:00,
2013-05-17 19:17:00,67.1,36.2,30.13,NW,315,4.0,8.3,32,0.00,,,0.00,WUHU216HW,2013-05-17 23:17:00,
2013-05-17 19:22:00,67.0,36.8,30.13,NNE,23,1.6,8.3,33,0.00,,,0.00,WUHU216HW,2013-05-17 23:22:00,
2013-05-17 19:27:00,66.8,36.6,30.13,NNE,23,3.4,6.3,33,0.00,,,0.00,WUHU216HW,2013-05-17 23:27:00,
2013-05-17 19:32:00,66.4,37.1,30.13,NNW,338,3.4,5.1,34,0.00,,,0.00,WUHU216HW,2013-05-17 23:32:00,
2013-05-17 19:37:00,66.2,36.9,30.14,NNW,338,5.4,6.3,34,0.00,,,0.00,WUHU216HW,2013-05-17 23:37:00,
2013-05-17 19:42:00,65.9,36.5,30.14,NNW,338,2.5,6.3,34,0.00,,,0.00,WUHU216HW,2013-05-17 23:42:00,
2013-05-17 19:47:00,65.5,35.6,30.14,North,0,0.4,6.3,33,0.00,,,0.00,WUHU216HW,2013-05-17 23:47:00,
2013-05-17 19:52:00,65.2,35.9,30.14,NNE,23,2.2,4.9,34,0.00,,,0.00,WUHU216HW,2013-05-17 23:52:00,
2013-05-17 19:57:00,64.8,35.7,30.14,NNE,23,4.3,4.9,34,0.00,,,0.00,WUHU216HW,2013-05-17 23:57:00,
2013-05-17 20:02:00,64.4,36.7,30.14,NNE,23,3.4,4.3,36,0.00,,,0.00,WUHU216HW,2013-05-18 00:02:00,
2013-05-17 20:07:00,63.9,36.3,30.15,NNE,23,2.2,4.0,36,0.00,,,0.00,WUHU216HW,2013-05-18 00:07:00,
2013-05-17 20:12:00,63.7,36.8,30.15,NNE,23,1.3,4.0,37,0.00,,,0.00,WUHU216HW,2013-05-18 00:12:00,
2013-05-17 20:17:00,63.2,37.0,30.16,North,0,0.9,2.7,38,0.00,,,0.00,WUHU216HW,2013-05-18 00:17:00,
2013-05-17 20:22:00,62.8,37.5,30.16,NNE,23,0.9,2.0,39,0.00,,,0.00,WUHU216HW,2013-05-18 00:22:00,
2013-05-17 20:27:00,62.3,38.3,30.16,NNE,23,1.8,2.5,41,0.00,,,0.00,WUHU216HW,2013-05-18 00:27:00,
2013-05-17 20:32:00,61.9,38.5,30.16,NNE,23,0.4,2.5,42,0.00,,,0.00,WUHU216HW,2013-05-18 00:32:00,
2013-05-17 20:37:00,61.6,38.7,30.16,NNE,23,0.0,2.5,43,0.00,,,0.00,WUHU216HW,2013-05-18 00:37:00,
2013-05-17 20:42:00,61.2,38.4,30.16,NNE,23,0.0,0.4,43,0.00,,,0.00,WUHU216HW,2013-05-18 00:42:00,
2013-05-17 20:47:00,60.8,38.7,30.17,NW,315,0.4,0.7,44,0.00,,,0.00,WUHU216HW,2013-05-18 00:47:00,
2013-05-17 20:52:00,60.5,38.3,30.17,WSW,248,1.1,1.1,44,0.00,,,0.00,WUHU216HW,2013-05-18 00:52:00,
2013-05-17 20:57:00,60.1,38.0,30.17,WSW,248,0.0,1.1,44,0.00,,,0.00,WUHU216HW,2013-05-18 00:57:00,
2013-05-17 21:02:00,59.9,39.0,30.18,WSW,248,0.2,0.9,46,0.00,,,0.00,WUHU216HW,2013-05-18 01:02:00,
2013-05-17 21:07:00,59.6,38.1,30.18,WSW,248,0.0,0.9,45,0.00,,,0.00,WUHU216HW,2013-05-18 01:07:00,
2013-05-17 21:12:00,59.2,38.3,30.18,SW,225,0.0,0.9,46,0.00,,,0.00,WUHU216HW,2013-05-18 01:12:00,
2013-05-17 21:17:00,58.9,38.1,30.18,SW,225,0.0,0.2,46,0.00,,,0.00,WUHU216HW,2013-05-18 01:17:00,
2013-05-17 21:22:00,58.5,38.3,30.19,SW,225,0.4,0.7,47,0.00,,,0.00,WUHU216HW,2013-05-18 01:22:00,
2013-05-17 21:27:00,58.0,38.3,30.19,South,180,0.4,0.9,48,0.00,,,0.00,WUHU216HW,2013-05-18 01:27:00,
2013-05-17 21:32:00,57.4,39.1,30.19,South,180,0.0,0.9,50,0.00,,,0.00,WUHU216HW,2013-05-18 01:32:00,
2013-05-17 21:37:00,57.1,39.2,30.19,South,180,0.0,0.9,51,0.00,,,0.00,WUHU216HW,2013-05-18 01:37:00,
2013-05-17 21:42:00,56.5,40.1,30.19,SSW,203,0.4,1.8,54,0.00,,,0.00,WUHU216HW,2013-05-18 01:42:00,
2013-05-17 21:47:00,56.0,41.9,30.19,SW,225,1.1,2.5,59,0.00,,,0.00,WUHU216HW,2013-05-18 01:47:00,
2013-05-17 21:52:00,55.8,41.7,30.20,SSE,158,0.2,2.5,59,0.00,,,0.00,WUHU216HW,2013-05-18 01:52:00,
2013-05-17 21:57:00,55.4,40.9,30.20,ESE,113,0.4,2.5,58,0.00,,,0.00,WUHU216HW,2013-05-18 01:57:00,
2013-05-17 22:02:00,55.1,40.5,30.20,NE,45,1.6,1.6,58,0.00,,,0.00,WUHU216HW,2013-05-18 02:02:00,
2013-05-17 22:07:00,54.9,40.3,30.20,NE,45,1.1,1.8,58,0.00,,,0.00,WUHU216HW,2013-05-18 02:07:00,
2013-05-17 22:12:00,54.5,40.5,30.21,NE,45,1.8,1.8,59,0.00,,,0.00,WUHU216HW,2013-05-18 02:12:00,
2013-05-17 22:17:00,54.2,40.1,30.21,ESE,113,0.2,2.0,59,0.00,,,0.00,WUHU216HW,2013-05-18 02:17:00,
2013-05-17 22:22:00,54.0,40.0,30.21,East,90,0.0,2.0,59,0.00,,,0.00,WUHU216HW,2013-05-18 02:22:00,
2013-05-17 22:27:00,53.8,39.9,30.21,NNW,338,0.4,0.7,59,0.00,,,0.00,WUHU216HW,2013-05-18 02:27:00,
2013-05-17 22:32:00,53.6,39.7,30.21,NNE,23,1.1,1.1,59,0.00,,,0.00,WUHU216HW,2013-05-18 02:32:00,
2013-05-17 22:37:00,53.5,40.3,30.21,NNE,23,0.4,1.3,61,0.00,,,0.00,WUHU216HW,2013-05-18 02:37:00,
2013-05-17 22:42:00,53.3,40.1,30.21,NNE,23,0.0,1.3,61,0.00,,,0.00,WUHU216HW,2013-05-18 02:42:00,
2013-05-17 22:47:00,52.9,40.2,30.21,WSW,248,1.1,1.6,62,0.00,,,0.00,WUHU216HW,2013-05-18 02:47:00,
2013-05-17 22:52:00,52.9,41.1,30.21,SW,225,0.9,1.6,64,0.00,,,0.00,WUHU216HW,2013-05-18 02:52:00,
2013-05-17 22:57:00,52.9,40.2,30.21,WSW,248,0.9,1.1,62,0.00,,,0.00,WUHU216HW,2013-05-18 02:57:00,
2013-05-17 23:02:00,52.7,40.4,30.21,SE,135,0.9,1.1,63,0.00,,,0.00,WUHU216HW,2013-05-18 03:02:00,
2013-05-17 23:07:00,52.6,40.7,30.21,East,90,1.1,1.3,64,0.00,,,0.00,WUHU216HW,2013-05-18 03:07:00,
2013-05-17 23:12:00,52.2,40.3,30.21,East,90,0.7,1.3,64,0.00,,,0.00,WUHU216HW,2013-05-18 03:12:00,
2013-05-17 23:17:00,51.8,40.0,30.21,East,90,0.2,1.1,64,0.00,,,0.00,WUHU216HW,2013-05-18 03:17:00,
2013-05-17 23:22:00,51.7,39.9,30.22,East,90,0.0,0.9,64,0.00,,,0.00,WUHU216HW,2013-05-18 03:22:00,
2013-05-17 23:27:00,51.5,39.7,30.22,East,90,0.4,0.7,64,0.00,,,0.00,WUHU216HW,2013-05-18 03:27:00,
2013-05-17 23:32:00,51.1,40.2,30.22,East,90,0.0,0.4,66,0.00,,,0.00,WUHU216HW,2013-05-18 03:32:00,
2013-05-17 23:37:00,50.9,40.3,30.22,East,90,0.0,0.4,67,0.00,,,0.00,WUHU216HW,2013-05-18 03:37:00,
2013-05-17 23:42:00,50.8,40.2,30.22,East,90,0.0,0.2,67,0.00,,,0.00,WUHU216HW,2013-05-18 03:42:00,
2013-05-17 23:47:00,50.8,40.2,30.22,West,270,0.2,1.8,67,0.00,,,0.00,WUHU216HW,2013-05-18 03:47:00,
2013-05-17 23:52:00,50.6,40.4,30.22,West,270,0.0,1.8,68,0.00,,,0.00,WUHU216HW,2013-05-18 03:52:00,
2013-05-17 23:57:00,50.6,40.4,30.22,West,270,1.1,1.1,68,0.00,,,0.00,WUHU216HW,2013-05-18 03:57:00,